Regional Weather Roundup
Issued by NWS

Home | Current Version | Previous Version | Graphics & Text | Print | Product List | Glossary Off
Versions: 1 2 3 4 5 6 7 8 9 10 11 12 13 14 15 16 17 18 19 20 21 22 23 24 25 26 27 28 29 30 31 32 33 34 35 36 37 38 39 40 41 42 43 44 45 46 47 48 49 50

000
ASUS43 KLSX 260507
RWRMO

WEATHER SUMMARY FOR MISSOURI
NATIONAL WEATHER SERVICE SPRINGFIELD MO
1200 AM CDT THU MAY 26 2016

NOTE: "FAIR" INDICATES FEW OR NO CLOUDS BELOW 12,000 FEET WITH NO
       SIGNIFICANT WEATHER AND/OR OBSTRUCTIONS TO VISIBILITY.
       CURRENT SKY AND/OR WEATHER CONDITIONS ARE NOT AVAILABLE FOR
       CHILLICOTHE AND FARMINGTON.

MOZ001>031-035>038-043-044-053-054-260600-
...NORTHERN AND WESTERN MISSOURI...

CITY           SKY/WX    TMP DP  RH WIND       PRES   REMARKS
KANSAS CTY INT CLOUDY    76  70  82 S13       29.87R
KANSAS C DTWN  CLOUDY    78  69  73 S10       29.86S
LEE`S SUMMIT   CLOUDY    75  68  78 S12       29.89R
ST JOSEPH      CLOUDY    77  69  76 SW9       29.85R THUNDER
CHILLICOTHE      N/A     76  66  71 SE5       29.88F
KIRKSVILLE     CLOUDY    69  64  84 S5        29.90F

$$
MOZ066>068-077>081-088>096-101>105-260600-
...SOUTHWEST MISSOURI...

CITY           SKY/WX    TMP DP  RH WIND       PRES   REMARKS
SPRINGFIELD    CLOUDY    72  67  84 S15       29.97S
JOPLIN         CLOUDY    75  71  87 SE10      29.93R

$$
MOZ032>034-039>042-045>050-055>058-069>072-260600-
...CENTRAL MISSOURI...

CITY           SKY/WX    TMP DP  RH WIND       PRES   REMARKS
COLUMBIA       CLEAR     71  66  84 S10       29.93F
JEFFERSON CITY CLEAR     72  65  78 E6        29.93F
ROLLA          CLOUDY    71  66  84 S12       29.97
SEDALIA        CLOUDY    74  66  76 S16       29.93S
WHITEMAN AFB   PTCLDY    73  69  90 S12       29.90F
WARRENSBURG    CLOUDY    73  64  73 S10       29.90S

$$
MOZ051-052-059>065-260600-
...EAST CENTRAL MISSOURI...

CITY           SKY/WX    TMP DP  RH WIND       PRES   REMARKS
ST LOUIS INTL  CLEAR     74  65  73 S9        29.97F
SPIRIT OF STL  CLEAR     71  65  81 SW3       29.96F
ST CHARLES     CLEAR     72  65  78 S3        29.96S

$$
MOZ072>076-082>087-097>100-106>115-260600-
...SOUTH CENTRAL AND SOUTHEAST MISSOURI...

CITY           SKY/WX    TMP DP  RH WIND       PRES   REMARKS
CAPE GIRARDEAU MOCLDY    67  64  90 CALM      30.04S
FARMINGTON     CLEAR     68  66  93 SW6       30.03S
POPLAR BLUFF   PTCLDY    67  65  93 CALM      30.02F
WEST PLAINS    PTCLDY    71  66  84 S8        30.04S

$$



USA.gov is the U.S. government's official web portal to all federal, state and local government web resources and services.